Regional Weather Roundup
Issued by NWS

Home | Current Version | Previous Version | Graphics & Text | Print | Product List | Glossary On
Versions: 1 2 3 4 5 6 7 8 9 10 11 12 13 14 15 16 17 18 19 20 21 22 23 24 25 26 27 28 29 30 31 32 33 34 35 36 37 38 39 40 41 42 43 44 45 46 47 48 49 50
482
ASUS45 KPSR 170110
RWRAZ

ARIZONA HOURLY REGIONAL WEATHER ROUNDUP
NATIONAL WEATHER SERVICE PHOENIX AZ
600 PM MST MON JAN 16 2017

NOTE: FAIR INDICATES FEW OR NO CLOUDS BELOW 12,000 FEET WITH NO
SIGNIFICANT WEATHER AND/OR OBSTRUCTIONS TO VISIBILITY.

AZZ001>003-036-170200-
NORTHWEST ARIZONA

CITY           SKY/WX    TMP DP  RH WIND       PRES   REMARKS
KINGMAN        PTCLDY    43  23  45 N9        30.05R
$$

AZZ004>008-015-016-018-170200-
NORTH CENTRAL ARIZONA

CITY           SKY/WX    TMP DP  RH WIND       PRES   REMARKS
GRAND CANYON   MOCLDY    35  31  85 CALM      30.05R
WILLIAMS       PTCLDY    37  32  81 CALM      30.04R
PRESCOTT       PTCLDY    44  33  65 CALM      30.02R
FLAGSTAFF      CLOUDY    37  32  82 S3        30.04R
PAYSON         DRIZZLE   41  39  93 CALM      30.06R
PAGE           PTCLDY    44  28  53 SE3       30.03R
$$

AZZ009>014-017-170200-
NORTHEAST ARIZONA

CITY           SKY/WX    TMP DP  RH WIND       PRES   REMARKS
WINSLOW        CLOUDY    45  32  60 NW7       30.02R
SAINT JOHNS    CLOUDY    42  36  79 CALM      30.01R
SHOW LOW       LGT RAIN  32  32 100 SW5       30.05R WCI  27
$$

AZZ023-170200-
GREATER PHOENIX AREA

CITY           SKY/WX    TMP DP  RH WIND       PRES   REMARKS
PHOENIX        MOCLDY    60  41  49 W5        30.00R
BUCKEYE        PTCLDY    57  41  54 CALM      30.01S
GLENDALE       PTCLDY    61  39  44 CALM      30.02R
LUKE AFB       PTCLDY    58  44  59 SW3       30.00R
DEER VALLEY    PTCLDY    57  40  52 SW6       30.00R
SCOTTSDALE     PTCLDY    58  41  53 W3        30.02R
MESA-GATEWAY   MOCLDY    57  45  62 SE3       30.02R
CHANDLER       MOCLDY    61  43  51 VRB5      30.01R
$$

AZZ027-028-170200-
SOUTHWEST MARICOPA COUNTY AND PINAL COUNTY

CITY           SKY/WX    TMP DP  RH WIND       PRES   REMARKS
CASA GRANDE    PTCLDY    57  45  64 NE6       30.02R
$$

AZZ503-504-507>509-170200-
SOUTHEAST ARIZONA

CITY           SKY/WX    TMP DP  RH WIND       PRES   REMARKS
TUCSON         PTCLDY    54  42  64 N7        30.03R
DAVIS-MONTHAN  PTCLDY    53  42  65 NW9       30.02R
RYAN FIELD     CLEAR     54  45  71 NW7       30.03R
NOGALES        MOCLDY    49  37  63 N5        30.00S
SIERRA VISTA   CLOUDY    46  37  71 W5        30.03R
DOUGLAS        CLOUDY    50  37  61 CALM      30.02R
SAFFORD        MOCLDY    48  43  82 N6        30.00R
$$

AZZ020-021-025-026-031-170200-
SOUTHWEST ARIZONA

CITY           SKY/WX    TMP DP  RH WIND       PRES   REMARKS
YUMA           MOCLDY    63  32  31 N7        30.02R
$$

CAZ031-033-041-043-047-048-061-170200-
SOUTHERN CALIFORNIA

CITY           SKY/WX    TMP DP  RH WIND       PRES   REMARKS
DOWNTOWN L.A.  CLEAR     60  50  69 W3        30.02S
L.A. AIRPORT   CLEAR     58  52  80 W15       30.03S
SAN DIEGO      PTCLDY    60  51  72 NW9       30.04R
BURBANK        CLEAR     59  48  67 S7        30.01S
ONTARIO        PTCLDY    58  44  60 W8        30.02R
RIVERSIDE      PTCLDY    57  17  21 N8G17     30.01R
PALM SPRINGS   PTCLDY    62  30  29 S6        30.03R
EL CENTRO NAS  PTCLDY    63  41  44 SW5       30.04R
IMPERIAL       PTCLDY    63  44  50 W3        30.02R
BLYTHE         PTCLDY    61  27  27 N7        30.04R
NEEDLES        PTCLDY    58  22  24 N14       30.05R
$$

NVZ020-UTZ003-170200-
SOUTHERN NEVADA-UTAH

CITY           SKY/WX    TMP DP  RH WIND       PRES   REMARKS
LAS VEGAS      PTCLDY    54  15  21 NE10      30.07R
SALT LAKE CITY PTCLDY    25  18  74 W7        30.28R WCI  17
$$

NMZ009-TXZ055-170200-
NEW MEXICO-WEST TEXAS

CITY           SKY/WX    TMP DP  RH WIND       PRES   REMARKS
ALBUQUERQUE    CLOUDY    47  35  63 E3        30.02R
EL PASO        MOCLDY    52  34  50 W5        30.01R
$$


........................KEY........................
SKY/WX - SKY CONDITION/WEATHER
TMP    - TEMPERATURE IN FAHRENHEIT
DP     - DEW POINT IN FAHRENHEIT
RH     - RELATIVE HUMIDITY IN PERCENT
WIND   - DIRECTION AND SPEED IN MILES PER HOUR (MPH)
VRB    - VARIABLE WIND DIRECTION
PRES   - MEAN SEA LEVEL PRESSURE IN INCHES OF MERCURY
         F - FALLING PRESSURE   R - RISING PRESSURE
         S - STEADY PRESSURE
VSB    - VISIBILITY IN MILES
HX     - HEAT INDEX IN FAHRENHEIT
WCI    - WIND CHILL INDEX IN FAHRENHEIT
TC     - TEMPERATURE IN CELSIUS WHICH IS ALSO KNOWN AS
         TEMPERATURE IN CENTIGRADE
AFB    - AIR FORCE BASE
         LUKE AFB IS LUKE AIR FORCE BASE
         DAVIS-MONTHAN IS DAVIS-MONTHAN AIR FORCE BASE
NAS    - NAVAL AIR STATION
         EL CENTRO NAS IS EL CENTRO NAVAL AIR STATION
N/A    - NOT AVAILABLE





USA.gov is the U.S. government's official web portal to all federal, state and local government web resources and services.